Tracking 19176 objects as of 26-May-2018
HD Live streaming from Space Station
objects crossing your sky now

CZ-4B DEB

Track CZ-4B DEB now!
10-day predictions


NORAD ID: 28438
Int'l Code: 2002-024E
Perigee: 782.2 km
Apogee: 811.7 km
Inclination: 98.5 °
Period: 100.7 minutes
Semi major axis: 7167 km
RCS: 0.0024 m2 (small)
Launch date: May 15, 2002
Source: People's Republic of China (PRC)
Launch site: Taiyaun Space Center, China (TSC)

Note: This is SATELLITE DEBRIS
aabbcc
Your satellite tracking list
Your tracking list is empty




NASA's NSSDC Master Catalog

Two Line Element Set (TLE):
1 28438U 02024E   18145.81449056 +.00000560 +00000-0 +23042-3 0  9994
2 28438 098.4746 136.5685 0020558 213.5000 146.4884 14.30567338831805
Source of the keplerian elements: AFSPC